DMSP 5D-2 F13 DEB, 42323

Orbit data source: Space-Track

DMSP 5D-2 F13 DEB, 42323 is space debris in SSO originally from a launch on Fri, 24 Mar 1995 UTC launched from the Air Force Western Test Range (AFWTR). Debris objects in space refer to the collection of defunct objects orbiting the Earth. Examples of debris include non-operational satellites, rocket bodies, and fragments generated from explosions, collisions, or faulty payload assembly.

Loading next visibility...
Identifier
42323, 1995-015JR
Orbit
SSO
Country
Flag of USUS
Related business
Manufacturer
Unknown
Mission
Spacecraft
Bus & Motor
Unknown
Mass
Unknown
Launch date (UTC)
1995-03-24 (31 years ago)
Launch vehicle
Unknown
Launch site
Air Force Western Test Range (AFWTR)
Object type
Payload
Rocket body
Debris
Shape & HBR
Unknown shape, 0.1 m
Radar Cross Section
Small (<0.1 m²)

Expand to show TLE details & history
Last TLE update: 3 days ago

TLE from 3 days ago
0 DMSP 5D-2 F13 DEB
1 42323U 95015JR  26069.47091862  .00000478  00000-0  25736-3 0  9999
2 42323  98.8284  85.7128 0001847 320.3086  39.7954 14.17551791538709
Epoch: 2026-03-10T11:18Z
TLE epoch observation values (Epoch: 2026-03-10T11:18:07.368Z)
Latitude
0.00002°
Longitude
108.03306°
Altitude
835.528 km
Speed
7.436 km/s
True Right ascension
05h 42m 51s
True Declination
0° 00' 00"
Sunlit
Object was in daylight at epoch
Visualization orbit readout
Latitude
Unknown
Longitude
Unknown
Altitude
Unknown
Speed
Unknown
Apparent Right ascension
Unknown
Apparent Declination
Unknown
Sunlit
N/A
Visualization observer readout
Local Sidereal Time
20:54:02
Azimuth
Unknown
Elevation
Unknown
Doppler factor
Unknown
Orbital elements
Apogee altitude
832.143 km
Perigee altitude
829.48 km
Semi-major axis
7,208.949 km
Eccentricity
0.00018
Inclination
98.8284°
RAAN
85.7128°
Arg. of periapsis
320.3086°
True anomaly
39.80895°
Mean anomaly
39.7954°
Eccentric anomaly
39.80217°
Mean motion
3.54597 °/min
Orbital period
101.52 mins
BSTAR
0.00025736
Loading maneuver chart data...
Computing Atmospheric mass density...

Documentation

Showing up to 5 results
|